Time,TemperatureF,DewpointF,PressureIn,WindDirection,WindDirectionDegrees,WindSpeedMPH,WindSpeedGustMPH,Humidity,HourlyPrecipIn,Conditions,Clouds,dailyrainin,SoftwareType,DateUTC
2013-07-12 00:01:00,73.0,72.0,29.86,NNE,23,0.0,0.0,98,0.00,,,0.10,,2013-07-12 04:01:00,
2013-07-12 00:11:00,73.0,72.0,29.86,NNE,23,0.0,0.0,98,0.00,,,0.10,,2013-07-12 04:11:00,
2013-07-12 00:22:00,73.0,72.0,29.86,NNE,23,0.0,0.0,98,0.00,,,0.10,,2013-07-12 04:22:00,
2013-07-12 00:32:00,73.0,72.0,29.86,NNE,23,0.0,0.0,98,0.00,,,0.10,,2013-07-12 04:32:00,
2013-07-12 00:53:00,72.0,71.0,29.86,NNE,23,0.0,0.0,98,0.00,,,0.10,,2013-07-12 04:53:00,
2013-07-12 01:02:00,72.0,71.0,29.87,NNE,23,0.0,0.0,98,0.00,,,0.10,,2013-07-12 05:02:00,
2013-07-12 01:12:00,72.0,72.0,29.87,NNE,23,0.0,0.0,99,0.00,,,0.10,,2013-07-12 05:12:00,
2013-07-12 01:22:00,72.0,72.0,29.87,NNE,23,0.0,0.0,99,0.00,,,0.10,,2013-07-12 05:22:00,
2013-07-12 01:32:00,72.0,72.0,29.88,NNE,23,0.0,0.0,99,0.00,,,0.10,,2013-07-12 05:32:00,
2013-07-12 01:43:00,71.0,70.0,29.88,NNE,24,0.0,0.0,98,0.00,,,0.10,,2013-07-12 05:43:00,
2013-07-12 01:53:00,70.0,69.0,29.88,ENE,59,0.0,0.0,97,0.00,,,0.10,,2013-07-12 05:53:00,
2013-07-12 02:01:00,70.0,69.0,29.88,NE,34,0.0,0.0,96,0.00,,,0.10,,2013-07-12 06:01:00,
2013-07-12 02:11:00,69.0,67.0,29.88,NNE,24,0.0,0.0,93,0.00,,,0.10,,2013-07-12 06:11:00,
2013-07-12 02:22:00,69.0,67.0,29.88,NNE,25,0.0,0.0,92,0.00,,,0.10,,2013-07-12 06:22:00,
2013-07-12 02:33:00,69.0,66.0,29.88,North,360,0.0,0.0,90,0.00,,,0.10,,2013-07-12 06:33:00,
2013-07-12 02:42:00,69.0,65.0,29.88,NNE,27,0.0,0.0,88,0.00,,,0.10,,2013-07-12 06:42:00,
2013-07-12 02:52:00,69.0,65.0,29.89,NNE,21,0.0,0.0,86,0.00,,,0.10,,2013-07-12 06:52:00,
2013-07-12 03:02:00,69.0,64.0,29.89,ENE,61,0.0,0.0,83,0.00,,,0.10,,2013-07-12 07:02:00,
2013-07-12 03:12:00,69.0,63.0,29.89,NNE,23,0.0,0.0,82,0.00,,,0.10,,2013-07-12 07:12:00,
2013-07-12 03:33:00,69.0,63.0,29.91,NE,41,0.0,0.0,80,0.00,,,0.10,,2013-07-12 07:33:00,
2013-07-12 03:43:00,69.0,62.0,29.91,NE,49,0.0,0.0,79,0.00,,,0.10,,2013-07-12 07:43:00,
2013-07-12 03:52:00,69.0,62.0,29.91,ENE,59,0.0,0.0,79,0.00,,,0.10,,2013-07-12 07:52:00,
2013-07-12 04:02:00,68.0,61.0,29.92,NNE,25,0.0,0.0,79,0.00,,,0.10,,2013-07-12 08:02:00,
2013-07-12 04:22:00,68.0,61.0,29.92,NNE,24,0.0,0.0,79,0.00,,,0.10,,2013-07-12 08:22:00,
2013-07-12 04:32:00,68.0,62.0,29.93,NE,37,0.0,0.0,80,0.00,,,0.10,,2013-07-12 08:32:00,
2013-07-12 04:42:00,67.0,61.0,29.93,ENE,62,0.0,0.0,81,0.00,,,0.10,,2013-07-12 08:42:00,
2013-07-12 04:53:00,67.0,61.0,29.94,NE,54,0.0,0.0,81,0.00,,,0.10,,2013-07-12 08:53:00,
2013-07-12 05:02:00,67.0,61.0,29.95,NE,56,0.0,0.0,81,0.00,,,0.10,,2013-07-12 09:02:00,
2013-07-12 05:13:00,67.0,61.0,29.95,NE,56,0.0,0.0,81,0.00,,,0.10,,2013-07-12 09:13:00,
2013-07-12 05:22:00,67.0,61.0,29.95,NE,35,0.0,0.0,81,0.00,,,0.10,,2013-07-12 09:22:00,
2013-07-12 05:32:00,67.0,61.0,29.96,NNE,17,0.0,0.0,81,0.00,,,0.10,,2013-07-12 09:32:00,
2013-07-12 05:43:00,67.0,61.0,29.96,East,85,0.0,0.0,82,0.00,,,0.10,,2013-07-12 09:43:00,
2013-07-12 05:52:00,67.0,61.0,29.96,NE,56,0.0,0.0,82,0.00,,,0.10,,2013-07-12 09:52:00,
2013-07-12 06:01:00,67.0,61.0,29.96,ENE,75,0.0,0.0,82,0.00,,,0.10,,2013-07-12 10:01:00,
2013-07-12 06:33:00,67.0,61.0,29.97,NNE,20,0.0,0.0,81,0.00,,,0.10,,2013-07-12 10:33:00,
2013-07-12 06:42:00,67.0,61.0,29.97,ENE,59,0.0,0.0,80,0.00,,,0.10,,2013-07-12 10:42:00,
2013-07-12 06:52:00,67.0,61.0,29.97,North,360,0.0,0.0,80,0.00,,,0.10,,2013-07-12 10:52:00,
2013-07-12 07:02:00,67.0,60.0,29.97,NE,54,1.0,6.0,78,0.00,,,0.10,,2013-07-12 11:02:00,
2013-07-12 07:12:00,68.0,60.0,29.97,NE,39,3.0,8.0,76,0.00,,,0.10,,2013-07-12 11:12:00,
2013-07-12 07:32:00,68.0,60.0,29.98,NE,51,3.0,8.0,76,0.00,,,0.10,,2013-07-12 11:32:00,
2013-07-12 07:53:00,69.0,60.0,29.99,ENE,65,0.0,10.0,74,0.00,,,0.10,,2013-07-12 11:53:00,
2013-07-12 08:02:00,69.0,60.0,30.00,ENE,65,1.0,12.0,73,0.00,,,0.10,,2013-07-12 12:02:00,
2013-07-12 08:11:00,70.0,61.0,30.00,ENE,77,2.0,8.0,73,0.00,,,0.10,,2013-07-12 12:11:00,
2013-07-12 08:22:00,70.0,61.0,30.00,NE,43,2.0,8.0,73,0.00,,,0.10,,2013-07-12 12:22:00,
2013-07-12 08:32:00,70.0,61.0,30.01,ENE,60,2.0,11.0,72,0.00,,,0.09,,2013-07-12 12:32:00,
2013-07-12 08:43:00,70.0,61.0,30.01,ENE,70,0.0,10.0,72,0.00,,,0.09,,2013-07-12 12:43:00,
2013-07-12 08:52:00,71.0,62.0,30.01,NE,50,0.0,1.0,72,0.00,,,0.09,,2013-07-12 12:52:00,
2013-07-12 09:01:00,72.0,62.0,30.01,ENE,73,0.0,1.0,71,0.00,,,0.09,,2013-07-12 13:01:00,
2013-07-12 09:32:00,73.0,62.0,30.02,ENE,62,3.0,11.0,68,0.00,,,0.09,,2013-07-12 13:32:00,
2013-07-12 09:53:00,73.0,61.0,30.03,ENE,70,1.0,12.0,65,0.00,,,0.09,,2013-07-12 13:53:00,
2013-07-12 10:02:00,74.0,61.0,30.02,NE,53,1.0,12.0,65,0.00,,,0.07,,2013-07-12 14:02:00,
2013-07-12 10:12:00,74.0,61.0,30.02,NE,53,1.0,12.0,65,0.00,,,0.07,,2013-07-12 14:12:00,
2013-07-12 10:32:00,75.0,59.0,30.03,ENE,62,8.0,14.0,58,0.00,,,0.01,,2013-07-12 14:32:00,
2013-07-12 10:44:00,75.0,59.0,30.03,East,80,7.0,13.0,57,0.00,,,0.00,,2013-07-12 14:44:00,
2013-07-12 10:53:00,75.0,59.0,30.03,East,80,7.0,13.0,57,0.00,,,0.00,,2013-07-12 14:53:00,
2013-07-12 11:02:00,75.0,59.0,30.04,ENE,70,5.0,12.0,58,0.00,,,0.00,,2013-07-12 15:02:00,
2013-07-12 11:33:00,74.0,58.0,30.05,NE,55,5.0,14.0,58,0.00,,,0.00,,2013-07-12 15:33:00,
2013-07-12 12:02:00,75.0,58.0,30.06,ENE,59,3.0,11.0,56,0.00,,,0.00,,2013-07-12 16:02:00,
2013-07-12 12:11:00,75.0,58.0,30.06,ENE,59,3.0,11.0,56,0.00,,,0.00,,2013-07-12 16:11:00,
2013-07-12 12:32:00,74.0,59.0,30.06,NE,50,4.0,13.0,59,0.00,,,0.00,,2013-07-12 16:32:00,
2013-07-12 12:43:00,76.0,57.0,30.06,ENE,75,5.0,13.0,51,0.00,,,0.00,,2013-07-12 16:43:00,
2013-07-12 12:58:00,76.0,57.0,30.06,ENE,75,5.0,13.0,51,0.00,,,0.00,,2013-07-12 16:58:00,
2013-07-12 13:39:00,77.0,56.0,30.06,ENE,68,7.0,16.0,49,0.00,,,0.00,,2013-07-12 17:39:00,
2013-07-12 13:54:00,76.0,55.0,30.06,ENE,72,6.0,19.0,49,0.00,,,0.00,,2013-07-12 17:54:00,
2013-07-12 14:07:00,77.0,56.0,30.06,ENE,66,5.0,18.0,49,0.00,,,0.00,,2013-07-12 18:07:00,
2013-07-12 14:34:00,76.0,54.0,30.06,East,85,8.0,16.0,47,0.00,,,0.00,,2013-07-12 18:34:00,
2013-07-12 14:56:00,76.0,56.0,30.06,ENE,59,5.0,17.0,50,0.00,,,0.00,,2013-07-12 18:56:00,
2013-07-12 15:05:00,77.0,57.0,30.06,ENE,64,0.0,13.0,51,0.00,,,0.00,,2013-07-12 19:05:00,
2013-07-12 15:15:00,77.0,57.0,30.06,ENE,64,0.0,13.0,51,0.00,,,0.00,,2013-07-12 19:15:00,
2013-07-12 15:46:00,76.0,56.0,30.06,East,90,2.0,12.0,50,0.00,,,0.00,,2013-07-12 19:46:00,
2013-07-12 15:57:00,76.0,56.0,30.06,East,90,2.0,12.0,50,0.00,,,0.00,,2013-07-12 19:57:00,
2013-07-12 16:34:00,76.0,57.0,30.06,East,82,5.0,11.0,51,0.00,,,0.00,,2013-07-12 20:34:00,
2013-07-12 16:54:00,76.0,57.0,30.06,NE,49,7.0,13.0,52,0.00,,,0.00,,2013-07-12 20:54:00,
2013-07-12 17:35:00,76.0,56.0,30.06,ENE,71,5.0,10.0,50,0.00,,,0.00,,2013-07-12 21:35:00,
2013-07-12 17:47:00,76.0,57.0,30.06,ENE,69,2.0,11.0,51,0.00,,,0.00,,2013-07-12 21:47:00,
2013-07-12 17:56:00,76.0,57.0,30.06,ENE,69,2.0,11.0,51,0.00,,,0.00,,2013-07-12 21:56:00,
2013-07-12 18:33:00,74.0,56.0,30.07,ENE,76,4.0,9.0,53,0.00,,,0.00,,2013-07-12 22:33:00,
2013-07-12 18:46:00,74.0,57.0,30.06,East,80,0.0,3.0,56,0.00,,,0.00,,2013-07-12 22:46:00,
2013-07-12 19:05:00,73.0,57.0,30.06,ENE,77,0.0,8.0,57,0.00,,,0.00,,2013-07-12 23:05:00,
2013-07-12 19:14:00,73.0,57.0,30.06,East,79,1.0,6.0,57,0.00,,,0.00,,2013-07-12 23:14:00,
2013-07-12 19:26:00,72.0,56.0,30.07,ENE,76,0.0,6.0,58,0.00,,,0.00,,2013-07-12 23:26:00,
2013-07-12 19:35:00,72.0,57.0,30.08,East,87,1.0,7.0,59,0.00,,,0.00,,2013-07-12 23:35:00,
2013-07-12 19:45:00,72.0,57.0,30.08,East,85,0.0,1.0,60,0.00,,,0.00,,2013-07-12 23:45:00,
2013-07-12 19:56:00,71.0,56.0,30.07,East,81,0.0,5.0,59,0.00,,,0.00,,2013-07-12 23:56:00,
2013-07-12 20:08:00,71.0,56.0,30.08,NE,41,0.0,1.0,60,0.00,,,0.00,,2013-07-13 00:08:00,
2013-07-12 20:19:00,71.0,56.0,30.08,NE,41,0.0,1.0,60,0.00,,,0.00,,2013-07-13 00:19:00,
2013-07-12 20:33:00,70.0,56.0,30.09,East,96,0.0,1.0,61,0.00,,,0.00,,2013-07-13 00:33:00,
2013-07-12 20:48:00,70.0,56.0,30.09,East,96,0.0,1.0,61,0.00,,,0.00,,2013-07-13 00:48:00,
2013-07-12 20:55:00,70.0,56.0,30.09,ENE,61,0.0,1.0,62,0.00,,,0.00,,2013-07-13 00:55:00,
2013-07-12 21:05:00,69.0,56.0,30.09,East,80,0.0,1.0,63,0.00,,,0.00,,2013-07-13 01:05:00,
2013-07-12 21:25:00,69.0,56.0,30.09,East,81,0.0,1.0,64,0.00,,,0.00,,2013-07-13 01:25:00,
2013-07-12 21:38:00,69.0,57.0,30.09,ESE,104,0.0,1.0,66,0.00,,,0.00,,2013-07-13 01:38:00,
2013-07-12 21:48:00,69.0,57.0,30.09,East,99,0.0,0.0,66,0.00,,,0.00,,2013-07-13 01:48:00,
2013-07-12 21:56:00,68.0,58.0,30.10,East,86,0.0,0.0,70,0.00,,,0.00,,2013-07-13 01:56:00,
2013-07-12 22:07:00,68.0,58.0,30.10,East,86,0.0,0.0,70,0.00,,,0.00,,2013-07-13 02:07:00,
2013-07-12 22:15:00,68.0,58.0,30.11,East,86,0.0,0.0,71,0.00,,,0.00,,2013-07-13 02:15:00,
2013-07-12 22:26:00,68.0,58.0,30.11,East,86,0.0,0.0,71,0.00,,,0.00,,2013-07-13 02:26:00,
2013-07-12 22:37:00,68.0,59.0,30.11,East,86,0.0,0.0,73,0.00,,,0.00,,2013-07-13 02:37:00,
2013-07-12 22:47:00,67.0,58.0,30.11,East,82,0.0,0.0,74,0.00,,,0.00,,2013-07-13 02:47:00,
2013-07-12 22:54:00,67.0,58.0,30.11,East,82,0.0,0.0,74,0.00,,,0.00,,2013-07-13 02:54:00,
2013-07-12 23:06:00,67.0,59.0,30.12,East,82,0.0,0.0,75,0.00,,,0.00,,2013-07-13 03:06:00,
2013-07-12 23:28:00,67.0,59.0,30.12,East,82,0.0,0.0,75,0.00,,,0.00,,2013-07-13 03:28:00,